[[{"header":{"parameterUnit":"m.s-1","parameterCategory":1,"la1":30.2991,"la2":30.254,"lo1":-89.0895,"lo2":-89.0444,"dy":0.0017,"dx":0.0017,"nx":28,"ny":28,"refTime":"2025-09-17T09:00:00:Z","depth":0,"parameterNumber":2,"parameterNumberName":"U-component_of_WINDS"},"data":[0,0,0,0,0,0,0,0,0,0,0,0,0,0,0,0,0,0,0,0,0,0,0,0,0,0,0,0,0,0,0,0,0,0,0,0,0,0,0,0,0,0,0,0,0,0,0,0,0,0,0,0,0,0,0,0,0,0,-2.417,-2.417,0,-2.4094,-2.4093,-2.4092,-2.4057,-2.4057,-2.4057,-2.4057,-2.3978,-2.3976,-2.3974,0,0,0,0,0,0,0,0,0,0,0,0,0,-2.4286,-2.4284,-2.4171,-2.417,-2.4169,-2.4094,-2.4093,-2.4092,-2.4057,-2.4057,-2.4057,-2.4057,-2.3979,-2.3976,-2.3974,0,0,0,0,0,0,0,0,0,0,0,0,0,-2.4226,-2.4284,-2.4171,-2.4142,-2.4139,-2.4095,-2.4093,-2.4092,-2.4057,-2.4057,-2.4057,-2.4057,-2.398,-2.3976,-2.3973,-2.3951,0,0,-2.3963,-2.3962,0,0,0,0,0,0,0,0,-2.4229,-2.4221,-2.4147,-2.4144,-2.414,-2.4085,-2.4105,-2.4045,-2.4057,-2.4088,-2.4057,-2.4057,-2.4014,-2.4008,-2.3993,-2.3948,-2.3944,-2.3963,-2.3961,-2.396,-2.3959,0,0,0,0,0,0,0,-2.4233,-2.4224,-2.414,-2.4146,-2.4142,-2.4133,-2.4125,-2.4093,-2.4051,-2.4085,-2.4083,-2.4074,-2.4012,-2.3996,-2.3991,-2.3943,-2.3963,-2.396,-2.3958,-2.3957,-2.3878,-2.3878,0,0,0,0,0,0,-2.4242,-2.4228,-2.4143,-2.4138,-2.4186,-2.4131,-2.4122,-2.4103,-2.4051,-2.4044,-2.4074,-2.4073,-2.4002,-2.3995,-2.3988,-2.396,-2.396,-2.3957,-2.3955,-2.3878,-2.3878,-2.3878,0,0,0,0,0,0,-2.4245,-2.4235,-2.4146,-2.4182,-2.417,-2.4129,-2.4108,-2.4101,-2.4086,-2.4043,-2.4035,-2.4066,-2.4001,-2.3993,-2.3961,-2.3957,-2.3955,-2.3952,-2.3879,-2.3878,-2.3878,-2.3904,0,0,0,0,0,0,-2.4248,-2.4236,-2.4227,-2.4182,-2.4169,-2.412,-2.4108,-2.41,-2.408,-2.4078,-2.4033,-2.4026,-2.4001,-2.3966,-2.3958,-2.3952,-2.395,-2.3879,-2.3878,-2.3878,-2.3903,-2.3904,-2.3905,0,0,0,0,0,-2.4253,-2.4237,-2.4227,-2.4217,-2.4156,-2.412,-2.4112,-2.4084,-2.408,-2.4071,-2.4044,-2.4027,-2.3959,-2.3963,-2.3954,-2.3947,-2.3879,-2.3879,-2.3878,-2.3902,-2.3904,-2.3905,0,0,0,0,0,0,-2.428,-2.423,-2.4219,-2.4188,-2.4159,-2.4114,-2.4101,-2.4086,-2.4057,-2.4056,-2.4022,-2.4012,-2.3984,-2.3962,-2.3968,-2.3924,-2.3917,-2.3915,-2.3939,-2.394,-2.3942,-2.3947,-2.3947,0,0,0,0,0,-2.4283,-2.4258,-2.4215,-2.4192,-2.4178,-2.4143,-2.4126,-2.4107,-2.4075,-2.4062,-2.4033,-2.4002,-2.3974,-2.3956,-2.3928,-2.39,-2.3891,-2.3891,-2.3892,-2.3893,-2.3892,-2.3877,-2.3877,-2.3877,-2.3877,-2.3877,0,0,-2.4288,-2.4258,-2.4244,-2.4197,-2.4172,-2.4147,-2.4132,-2.4106,-2.4087,-2.4058,-2.4027,-2.4005,-2.3969,-2.394,-2.3925,-2.3921,-2.389,-2.3893,-2.3894,-2.3892,-2.3877,-2.3877,-2.3877,-2.3877,-2.3877,-2.3877,0,0,-2.4285,-2.4259,-2.4237,-2.4213,-2.4177,-2.4153,-2.4148,-2.4107,-2.4091,-2.406,-2.4038,-2.4015,-2.3967,-2.3943,-2.3924,-2.3915,-2.3899,-2.3906,-2.3913,-2.3899,-2.3899,-2.3899,-2.3896,-2.3896,-2.3905,-2.3905,-2.3905,0,-2.4295,-2.4257,-2.4228,-2.4204,-2.4184,-2.4158,-2.4137,-2.4115,-2.407,-2.4058,-2.4054,-2.3994,-2.3968,-2.3934,-2.3932,-2.3917,-2.3911,-2.3911,-2.3901,-2.3901,-2.39,-2.3898,-2.3897,-2.3906,-2.3906,-2.3906,-2.3906,0,-2.4272,-2.4246,-2.4233,-2.4192,-2.4172,-2.4149,-2.4117,-2.41,-2.4084,-2.4061,-2.4031,-2.3999,-2.3964,-2.3955,-2.3938,-2.3919,-2.3918,-2.3908,-2.39,-2.3902,-2.3899,-2.3898,-2.3908,-2.3907,-2.3907,-2.3907,0,0,-2.4282,-2.4228,-2.4223,-2.4205,-2.4164,-2.4143,-2.412,-2.4087,-2.4073,-2.4044,-2.4024,-2.3986,-2.3977,-2.3956,-2.3937,-2.3925,-2.3921,-2.3916,-2.3915,-2.3919,-2.3899,-2.3907,-2.3906,-2.3911,-2.391,-2.391,-2.3903,0,-2.4273,-2.423,-2.4205,-2.4173,-2.4149,-2.4125,-2.4105,-2.4078,-2.4057,-2.4034,-2.4011,-2.3984,-2.3975,-2.3962,-2.3949,-2.3924,-2.3916,-2.3924,-2.3892,-2.3891,-2.3902,-2.3904,-2.3912,-2.3906,-2.3901,-2.3901,-2.3901,0,-2.4256,-2.4229,-2.4195,-2.4158,-2.4147,-2.4129,-2.4098,-2.4077,-2.4046,-2.4032,-2.401,-2.3991,-2.3967,-2.3962,-2.3928,-2.3934,-2.392,-2.3906,-2.3905,-2.3901,-2.3896,-2.3901,-2.3904,-2.3903,-2.3898,-2.3899,-2.3899,0,-2.4267,-2.4222,-2.4196,-2.4182,-2.4138,-2.4127,-2.4108,-2.4077,-2.406,-2.4033,-2.4022,-2.3992,-2.3976,-2.3954,-2.3928,-2.3927,-2.3898,-2.389,-2.3886,-2.3886,-2.388,-2.3881,-2.3881,-2.3871,-2.3871,-2.3871,-2.3871,0,-2.426,-2.424,-2.4201,-2.4185,-2.4163,-2.4135,-2.4114,-2.4093,-2.4067,-2.4047,-2.4024,-2.4006,-2.3973,-2.3951,-2.3931,-2.3907,-2.39,-2.3888,-2.3883,-2.389,-2.3892,-2.388,-2.388,-2.3871,-2.3871,-2.3871,-2.3871,0,-2.4268,-2.4241,-2.4212,-2.4174,-2.4164,-2.4149,-2.4117,-2.4101,-2.408,-2.4056,-2.4048,-2.4015,-2.3988,-2.3961,-2.3924,-2.3911,-2.3888,-2.388,-2.3898,-2.3895,-2.3893,-2.3894,-2.3886,-2.3884,-2.3875,-2.3875,-2.3875,0,-2.4265,-2.4249,-2.421,-2.4196,-2.4178,-2.4155,-2.4138,-2.411,-2.4093,-2.4059,-2.4047,-2.4019,-2.3995,-2.3954,-2.3927,-2.39,-2.3892,-2.3891,-2.3887,-2.3896,-2.3893,-2.3894,-2.3893,-2.3892,-2.3892,-2.3893,-2.3893,0,-2.4262,-2.425,-2.4226,-2.4199,-2.4179,-2.4155,-2.4131,-2.4121,-2.4089,-2.4071,-2.4044,-2.4026,-2.399,-2.3963,-2.3933,-2.3914,-2.3898,-2.3894,-2.3892,-2.3899,-2.391,-2.3905,-2.3902,-2.3894,-2.3894,-2.3894,-2.3894,-2.3894,-2.4264,-2.425,-2.4221,-2.4196,-2.4176,-2.4154,-2.4138,-2.4116,-2.4093,-2.4062,-2.4047,-2.4021,-2.3993,-2.3951,-2.3933,-2.3912,-2.3908,-2.3904,-2.3903,-2.3903,-2.3905,-2.3914,-2.3907,-2.3907,-2.3907,-2.3907,-2.3906,0,-2.4261,-2.4242,-2.4219,-2.4187,-2.4167,-2.4156,-2.4129,-2.4114,-2.4091,-2.4066,-2.4044,-2.4014,-2.3988,-2.396,-2.3933,-2.3922,-2.3915,-2.3916,-2.3917,-2.3913,-2.391,-2.3915,-2.3923,-2.3923,-2.3923,-2.3923,-2.3923,-2.3923,-2.4257,-2.4233,-2.4218,-2.4184,-2.4165,-2.414,-2.4126,-2.4106,-2.4087,-2.4055,-2.4034,-2.4016,-2.3991,-2.3962,-2.3938,-2.3931,-2.3922,-2.3926,-2.3916,-2.3914,-2.3913,-2.3912,-2.3916,-2.3924,-2.3924,-2.3921,-2.3921,-2.3921]},{"header":{"parameterUnit":"m.s-1","parameterCategory":1,"la1":30.2991,"la2":30.254,"lo1":-89.0895,"lo2":-89.0444,"dy":0.0017,"dx":0.0017,"nx":28,"ny":28,"refTime":"2025-09-17T09:00:00:Z","depth":0,"parameterNumber":3,"parameterNumberName":"V-component_of_WINDS"},"data":[0,0,0,0,0,0,0,0,0,0,0,0,0,0,0,0,0,0,0,0,0,0,0,0,0,0,0,0,0,0,0,0,0,0,0,0,0,0,0,0,0,0,0,0,0,0,0,0,0,0,0,0,0,0,0,0,0,0,1.4664,1.4664,0,1.4666,1.4666,1.4666,1.4719,1.4721,1.4722,1.4723,1.4722,1.4721,1.472,0,0,0,0,0,0,0,0,0,0,0,0,0,1.4703,1.4702,1.4664,1.4664,1.4664,1.4666,1.4666,1.4666,1.4719,1.4721,1.4722,1.4724,1.4723,1.4721,1.472,0,0,0,0,0,0,0,0,0,0,0,0,0,1.4694,1.4702,1.4664,1.4691,1.4693,1.4666,1.4666,1.4666,1.4719,1.4721,1.4723,1.4725,1.4723,1.4722,1.472,1.4666,0,0,1.4714,1.4713,0,0,0,0,0,0,0,0,1.4694,1.4692,1.4687,1.4689,1.4692,1.4695,1.468,1.4666,1.4718,1.4709,1.4723,1.4726,1.4711,1.4711,1.4706,1.4666,1.4666,1.4713,1.4712,1.4711,1.4711,0,0,0,0,0,0,0,1.4695,1.4692,1.4665,1.4687,1.469,1.4702,1.4703,1.4678,1.4698,1.471,1.4714,1.4713,1.4713,1.4708,1.4707,1.4666,1.4714,1.4712,1.4711,1.471,1.4581,1.4579,0,0,0,0,0,0,1.4692,1.4693,1.4665,1.4665,1.4698,1.4699,1.4701,1.4692,1.4699,1.4702,1.4712,1.4716,1.471,1.4709,1.4707,1.4643,1.4711,1.471,1.4709,1.4584,1.4581,1.4578,0,0,0,0,0,0,1.4693,1.4689,1.4665,1.468,1.4678,1.4697,1.4686,1.4691,1.4686,1.47,1.4704,1.4703,1.4712,1.471,1.4676,1.4644,1.4709,1.4707,1.4586,1.4583,1.458,1.4517,0,0,0,0,0,0,1.4694,1.4689,1.467,1.4679,1.4677,1.4634,1.4684,1.4689,1.4682,1.4688,1.4693,1.4696,1.4713,1.4679,1.4674,1.4643,1.4705,1.4589,1.4585,1.4581,1.4522,1.4512,1.4503,0,0,0,0,0,1.4695,1.4652,1.4668,1.4665,1.4653,1.4633,1.4631,1.4653,1.468,1.466,1.4669,1.4696,1.4649,1.4675,1.467,1.4638,1.4591,1.4586,1.4581,1.4526,1.4514,1.4504,0,0,0,0,0,0,1.4637,1.4653,1.4672,1.4631,1.463,1.4642,1.4617,1.464,1.463,1.4636,1.4663,1.4663,1.4625,1.4629,1.4657,1.4586,1.4625,1.4618,1.4584,1.4573,1.4564,1.4563,1.4704,0,0,0,0,0,1.4619,1.4602,1.4618,1.458,1.4578,1.4598,1.459,1.4607,1.4606,1.4606,1.4613,1.4611,1.4596,1.4585,1.4572,1.4524,1.4524,1.4499,1.449,1.4482,1.4475,1.4448,1.4437,1.4562,1.4562,1.4562,0,0,1.4583,1.459,1.4577,1.4568,1.4569,1.455,1.4597,1.4574,1.456,1.4602,1.457,1.4576,1.4575,1.4533,1.4515,1.4535,1.4442,1.4476,1.4469,1.4467,1.4442,1.443,1.4419,1.4558,1.4559,1.456,0,0,1.4505,1.451,1.4478,1.4479,1.4481,1.4494,1.4486,1.4494,1.4499,1.4469,1.45,1.4483,1.4456,1.4454,1.445,1.4372,1.4395,1.4367,1.4318,1.4291,1.4281,1.4272,1.4242,1.4231,1.4361,1.4361,1.4361,0,1.4459,1.4432,1.4459,1.4434,1.4428,1.4467,1.4434,1.4434,1.443,1.4425,1.4448,1.4415,1.4418,1.4375,1.4356,1.4352,1.4343,1.4365,1.428,1.4272,1.4264,1.4236,1.4225,1.4358,1.4358,1.4358,1.4359,0,1.4374,1.4354,1.4328,1.4325,1.4317,1.4288,1.4309,1.4298,1.4316,1.4326,1.4293,1.4298,1.4286,1.4278,1.4295,1.4237,1.4249,1.4276,1.4315,1.4248,1.4222,1.4211,1.4352,1.4354,1.4355,1.4356,0,0,1.4258,1.427,1.426,1.4258,1.4264,1.4249,1.4222,1.4211,1.4199,1.4196,1.4173,1.415,1.4175,1.4169,1.4187,1.4164,1.4099,1.4193,1.4194,1.4173,1.4033,1.4011,1.3999,1.4116,1.4114,1.4113,1.4033,0,1.4181,1.4136,1.4159,1.411,1.4091,1.4129,1.4105,1.4105,1.4114,1.4099,1.411,1.4092,1.4127,1.4124,1.4103,1.4112,1.4071,1.4118,1.4092,1.4091,1.4088,1.3985,1.3962,1.3886,1.4023,1.4021,1.402,0,1.4085,1.4078,1.4027,1.4036,1.4029,1.4007,1.3998,1.3984,1.3985,1.3993,1.3987,1.4011,1.3983,1.4024,1.3986,1.4017,1.4008,1.4011,1.4009,1.4005,1.4049,1.3976,1.3863,1.385,1.4005,1.4006,1.4007,0,1.4002,1.3981,1.3947,1.3945,1.3955,1.3938,1.3941,1.3944,1.3936,1.3928,1.3923,1.3912,1.3905,1.3896,1.3915,1.3944,1.3873,1.3916,1.3878,1.3877,1.3859,1.3859,1.374,1.3858,1.3858,1.3858,1.3858,0,1.3912,1.3879,1.391,1.3889,1.3853,1.388,1.3843,1.385,1.3852,1.3832,1.3865,1.3845,1.3873,1.3856,1.3871,1.3836,1.3834,1.3838,1.3842,1.3834,1.3832,1.3826,1.3831,1.3855,1.3856,1.3856,1.3857,0,1.3812,1.3832,1.3798,1.381,1.3812,1.3785,1.3794,1.3775,1.3787,1.3762,1.3757,1.3776,1.3757,1.3776,1.3759,1.3769,1.3721,1.3734,1.3721,1.3723,1.3683,1.3685,1.3552,1.3535,1.3667,1.3665,1.3664,0,1.3752,1.3728,1.3737,1.3727,1.3728,1.3711,1.3703,1.3729,1.3719,1.3718,1.3698,1.3683,1.3671,1.364,1.3651,1.3638,1.3649,1.3604,1.3647,1.3639,1.3645,1.3645,1.3642,1.3594,1.3592,1.3591,1.359,0,1.3643,1.3654,1.3642,1.3632,1.3622,1.3616,1.3612,1.3601,1.3629,1.3616,1.3598,1.3589,1.3572,1.3555,1.3545,1.3548,1.3572,1.3577,1.3566,1.3556,1.3548,1.3549,1.3693,1.3579,1.358,1.3581,1.3581,1.3582,1.3559,1.3539,1.3542,1.3527,1.3527,1.3523,1.3505,1.3515,1.3501,1.3489,1.3506,1.3483,1.3484,1.3473,1.3472,1.3454,1.3473,1.3459,1.3455,1.345,1.3443,1.3554,1.3453,1.3453,1.3453,1.3454,1.3454,0,1.3449,1.3454,1.344,1.3434,1.3421,1.3448,1.3445,1.3433,1.3412,1.3412,1.34,1.3379,1.3363,1.3374,1.336,1.3343,1.3354,1.3338,1.3338,1.3338,1.3428,1.3437,1.333,1.333,1.333,1.333,1.333,1.333,1.339,1.3356,1.3368,1.3334,1.3339,1.3317,1.3312,1.3308,1.3308,1.3282,1.327,1.3278,1.3281,1.3268,1.3254,1.3258,1.325,1.3229,1.3236,1.332,1.3332,1.3343,1.3352,1.3228,1.3228,1.3148,1.3147,1.3146]}]]